FLOCK 3K-6 (43896 NORAD) Tracking and Keplerian Element Data

This shows tracking and keplerian element data for the satellite.

Feedback or suggestion? Click here.




ElementValue
Catalog43896
NameFLOCK 3K-6
Epoch Orbit458
Epoch Day26.16349286
Epoch Year2019
RAAN295.2459
Inclination97.2995
Eccentricity0.0023789
Argument of Perigee135.9897
Mean Anonmoly224.324
Mean Motion15.23542977
Decay Rate7.59E-06
L11 43896U 18111W 19026.16349286 .00000759 00000-0 34430-4 0 9998
L22 43896 97.2995 295.2459 0023789 135.9897 224.3240 15.23542977 4589

Live tracking and technical data element details for FLOCK 3K-6 (NORAD 43896). FLOCK 3K-6 can be tracked NOW for your location showing map with azimuth and elevation plus other details from your city location.

Track the satellite on the map from your city or location and see movement details for azimuth, elevation, latitude, longitude, range, height, and movement on the map or in text.







IsCatalogInMostPopularTable: catalog: 43896, numindb: 60
Update: records affected: 1



GetName: 43896 FLOCK 3K-6

Hit Count: updated at: Sun, 26 May 2019 09:44:11 GMT